Volver al catálogo

IRIDIUM 63

ActivoComunicacionesPO
NORAD 25286·PAYLOAD·🇺🇸 United States

Lanzado Apr 7, 1998 desde Baikonur Cosmodrome

Loading…

Próximos Pases (próximas 24 horas)

TLE

ActualizadoSource: Space-Track

Época: Sep 13, 2026, 22:00 UTC

1 25286U 98021B   26256.91725861  .00000237  00000-0  73463-4 0  9992
2 25286  86.3925 251.7061 0002069  93.4043 266.7391 14.36928205488992

Sigue IRIDIUM 63 en tiempo real con AllMySat

Download on the App Store